TimeCST,TemperatureF,Dew PointF,Humidity,Sea Level PressureIn,VisibilityMPH,Wind Direction,Wind SpeedMPH,Gust SpeedMPH,PrecipitationIn,Events,Conditions,WindDirDegrees,DateUTC
12:15 AM,37.4,21.2,52,30.19,10.0,South,9.2,-,N/A,,Mostly Cloudy,190,2012-12-31 06:15:00
12:35 AM,37.4,21.2,52,30.20,10.0,South,10.4,-,N/A,,Overcast,190,2012-12-31 06:35:00
12:55 AM,37.4,21.2,52,30.19,10.0,South,12.7,-,N/A,,Overcast,190,2012-12-31 06:55:00
1:15 AM,37.4,24.8,60,30.19,10.0,South,10.4,-,N/A,,Overcast,190,2012-12-31 07:15:00
1:35 AM,35.6,28.4,75,30.19,9.0,SSW,9.2,-,N/A,,Overcast,200,2012-12-31 07:35:00
1:55 AM,33.8,28.4,81,30.19,10.0,South,9.2,-,0.05,,Overcast,190,2012-12-31 07:55:00
2:35 AM,33.8,28.4,81,30.17,8.0,SSE,5.8,-,0.05,,Overcast,160,2012-12-31 08:35:00
2:55 AM,33.8,30.2,87,30.17,8.0,SSE,5.8,-,0.07,,Overcast,160,2012-12-31 08:55:00
3:15 AM,33.8,30.2,87,30.17,5.0,South,3.5,-,0.02,,Overcast,180,2012-12-31 09:15:00
3:55 AM,33.8,30.2,87,30.17,7.0,SSW,5.8,-,0.06,,Overcast,200,2012-12-31 09:55:00
4:15 AM,33.8,30.2,87,30.17,5.0,SSW,6.9,-,0.02,,Overcast,210,2012-12-31 10:15:00
4:35 AM,33.8,30.2,87,30.16,8.0,SSW,5.8,-,0.04,,Overcast,200,2012-12-31 10:35:00
4:55 AM,33.8,30.2,87,30.16,6.0,SSW,5.8,-,0.06,,Overcast,200,2012-12-31 10:55:00
5:15 AM,33.8,30.2,87,30.16,6.0,South,5.8,-,0.02,,Overcast,180,2012-12-31 11:15:00
5:35 AM,33.8,30.2,87,30.14,5.0,South,6.9,-,0.05,,Overcast,170,2012-12-31 11:35:00
5:55 AM,33.8,30.2,87,30.14,5.0,South,9.2,-,0.07,,Mostly Cloudy,180,2012-12-31 11:55:00
6:15 AM,33.8,30.2,87,30.14,7.0,South,5.8,-,0.02,,Overcast,180,2012-12-31 12:15:00
6:55 AM,33.8,30.2,87,30.13,6.0,SSE,6.9,-,0.05,,Overcast,150,2012-12-31 12:55:00
7:15 AM,33.8,30.2,87,30.11,7.0,SE,6.9,-,0.02,,Overcast,140,2012-12-31 13:15:00
7:35 AM,33.8,30.2,87,30.11,7.0,SSE,4.6,-,0.03,,Overcast,160,2012-12-31 13:35:00
7:55 AM,33.8,30.2,87,30.11,5.0,SSE,4.6,-,0.04,,Overcast,160,2012-12-31 13:55:00
8:15 AM,33.8,30.2,87,30.11,5.0,SSE,6.9,-,0.01,,Overcast,150,2012-12-31 14:15:00
8:35 AM,33.8,30.2,87,30.12,3.0,SSE,6.9,-,0.04,,Overcast,160,2012-12-31 14:35:00
8:55 AM,35.6,32.0,87,30.11,4.0,SSE,10.4,-,0.06,,Overcast,150,2012-12-31 14:55:00
9:15 AM,35.6,32.0,87,30.10,7.0,SSE,8.1,-,0.01,,Overcast,150,2012-12-31 15:15:00
9:35 AM,35.6,32.0,87,30.09,4.0,SE,9.2,-,0.03,,Overcast,140,2012-12-31 15:35:00
9:55 AM,35.6,32.0,87,30.10,5.0,SE,8.1,-,0.04,,Overcast,130,2012-12-31 15:55:00
10:15 AM,35.6,32.0,87,30.14,2.0,South,3.5,-,0.05,,Overcast,180,2012-12-31 16:15:00
10:35 AM,35.6,33.8,93,30.11,3.0,ESE,6.9,-,0.07,,Overcast,120,2012-12-31 16:35:00
10:55 AM,35.6,32.0,87,30.09,3.0,SE,9.2,-,0.09,,Overcast,130,2012-12-31 16:55:00
11:15 AM,35.6,33.8,93,30.07,4.0,ESE,8.1,-,0.02,,Overcast,120,2012-12-31 17:15:00
11:35 AM,35.6,33.8,93,30.08,2.0,Calm,Calm,-,0.06,,Overcast,0,2012-12-31 17:35:00
11:55 AM,35.6,33.8,93,30.08,0.8,Calm,Calm,-,0.11,,Overcast,0,2012-12-31 17:55:00
12:15 PM,35.6,33.8,93,30.06,1.8,SSE,4.6,-,0.04,,Overcast,150,2012-12-31 18:15:00
12:35 PM,37.4,33.8,87,30.03,2.0,SE,5.8,-,0.07,,Overcast,140,2012-12-31 18:35:00
12:55 PM,37.4,33.8,87,30.02,3.0,SE,8.1,-,0.09,,Overcast,130,2012-12-31 18:55:00
1:15 PM,37.4,33.8,87,30.01,4.0,SE,6.9,-,0.01,,Overcast,140,2012-12-31 19:15:00
1:35 PM,37.4,35.6,93,29.99,4.0,SE,8.1,-,0.01,,Overcast,140,2012-12-31 19:35:00
1:55 PM,37.4,33.8,87,29.99,5.0,SE,8.1,-,0.02,,Overcast,140,2012-12-31 19:55:00
2:35 PM,37.4,33.8,87,29.97,4.0,SE,8.1,-,N/A,,Overcast,130,2012-12-31 20:35:00
2:55 PM,37.4,33.8,87,29.96,10.0,SE,9.2,-,N/A,,Overcast,140,2012-12-31 20:55:00
3:35 PM,37.4,33.8,87,29.96,10.0,SE,8.1,-,N/A,,Overcast,130,2012-12-31 21:35:00
3:55 PM,37.4,33.8,87,29.97,10.0,SE,5.8,-,N/A,,Overcast,130,2012-12-31 21:55:00
4:15 PM,37.4,33.8,87,29.96,5.0,ESE,5.8,-,N/A,,Overcast,120,2012-12-31 22:15:00
4:35 PM,37.4,33.8,87,29.96,5.0,SE,4.6,-,N/A,,Overcast,130,2012-12-31 22:35:00
4:55 PM,37.4,33.8,87,29.97,3.0,ESE,4.6,-,N/A,,Overcast,110,2012-12-31 22:55:00
5:15 PM,37.4,33.8,87,29.97,4.0,Calm,Calm,-,N/A,,Overcast,0,2012-12-31 23:15:00
5:55 PM,37.4,35.6,93,29.97,5.0,Calm,Calm,-,N/A,,Overcast,0,2012-12-31 23:55:00
6:15 PM,37.4,35.6,93,29.97,5.0,Calm,Calm,-,N/A,,Overcast,0,2013-01-01 00:15:00
6:35 PM,37.4,35.6,93,29.98,4.0,Calm,Calm,-,N/A,,Overcast,0,2013-01-01 00:35:00
6:55 PM,37.4,35.6,93,29.97,3.0,Calm,Calm,-,N/A,,Overcast,0,2013-01-01 00:55:00
7:15 PM,37.4,35.6,93,29.98,4.0,Calm,Calm,-,N/A,,Overcast,0,2013-01-01 01:15:00
7:35 PM,37.4,35.6,93,29.98,4.0,Calm,Calm,-,N/A,,Overcast,0,2013-01-01 01:35:00
8:15 PM,37.4,35.6,93,29.99,2.5,Calm,Calm,-,N/A,,Overcast,0,2013-01-01 02:15:00
8:55 PM,37.4,35.6,93,29.99,1.2,Calm,Calm,-,N/A,,Overcast,0,2013-01-01 02:55:00
9:15 PM,37.4,35.6,93,30.00,0.5,Calm,Calm,-,N/A,,Overcast,0,2013-01-01 03:15:00
9:35 PM,37.4,35.6,93,30.00,0.2,WNW,3.5,-,N/A,,Overcast,300,2013-01-01 03:35:00
9:55 PM,37.4,35.6,93,30.01,0.2,WNW,3.5,-,N/A,,Overcast,290,2013-01-01 03:55:00
10:35 PM,37.4,35.6,93,30.02,0.5,WSW,3.5,-,N/A,,Overcast,250,2013-01-01 04:35:00
11:15 PM,37.4,35.6,93,30.02,0.8,West,4.6,-,N/A,,Overcast,270,2013-01-01 05:15:00
11:35 PM,37.4,35.6,93,30.03,0.8,WNW,5.8,-,N/A,,Overcast,290,2013-01-01 05:35:00
11:55 PM,37.4,35.6,93,30.03,1.2,WNW,6.9,-,N/A,,Overcast,290,2013-01-01 05:55:00